EW2804 Weather Reports


time (UTC)temp
C
wind
direction
speed
KPH
gust
KPH
rain 1hr
cm
rain 24hr
cm
rain mn
cm
humidity
%
barometer
mb
20260507093215 11 44 0.0 0.0 0.00 0.08 0.00 81 1017.2
20260507092140 11 44 0.0 0.0 0.00 0.08 0.00 81 1017.3
20260507091131 11 44 0.0 0.0 0.00 0.08 0.00 81 1017.3
20260507090151 11 44 0.0 0.0 0.00 0.08 0.00 80 1017.3
20260507085122 11 44 0.0 0.0 0.00 0.08 0.00 79 1017.3
20260507084100 12 44 0.0 0.0 0.00 0.08 0.00 79 1017.3
20260507083030 12 43 0.0 0.0 0.00 0.08 0.00 78 1017.4
20260507080910 12 44 0.0 0.0 0.00 0.08 0.00 78 1017.2
20260507074710 12 24 0.0 3.2 0.00 0.08 0.00 78 1016.9
20260507073722 12 313 0.0 6.4 0.00 0.08 0.00 77 1016.9
20260507072647 12 37 0.0 6.4 0.00 0.08 0.00 78 1016.7
20260507070521 12 13 0.0 3.2 0.00 0.08 0.00 78 1016.9
20260507064434 12 28 0.0 0.0 0.00 0.08 0.00 76 1017.1
20260507063440 12 0 0.0 0.0 0.00 0.08 0.00 76 1017.0
20260507062458 12 0 0.0 0.0 0.00 0.08 0.00 76 1016.8
20260507061443 13 0 0.0 1.6 0.00 0.08 0.00 75 1016.7
20260507060435 13 0 0.0 0.0 0.00 0.08 0.00 74 1016.6
20260507055457 13 0 0.0 0.0 0.00 0.08 0.00 74 1016.5
20260507054505 13 0 0.0 3.2 0.00 0.08 0.00 73 1016.3
20260507052349 13 0 0.0 3.2 0.00 0.08 0.00 73 1016.3
20260507051335 13 0 0.0 0.0 0.00 0.08 0.00 72 1016.3
20260507050308 13 0 0.0 6.4 0.00 0.08 0.00 72 1016.3
20260507045254 13 0 0.0 4.8 0.00 0.08 0.08 71 1016.3
20260507044243 14 40 0.0 3.2 0.00 0.08 0.08 71 1016.5
20260507043234 14 30 0.0 3.2 0.00 0.08 0.08 70 1016.6
20260507042233 14 30 0.0 9.7 0.00 0.08 0.08 70 1016.6
20260507041221 15 38 1.6 9.7 0.00 0.08 0.08 69 1016.5
20260507040200 15 64 1.6 12.9 0.00 0.08 0.08 69 1016.6
20260507032925 15 61 1.6 0.0 0.00 0.08 0.08 69 1016.7
20260507031922 15 49 1.6 8.0 0.00 0.08 0.08 69 1016.7
20260507030931 15 61 3.2 9.7 0.00 0.08 0.08 68 1016.6
20260507025927 15 53 1.6 9.7 0.00 0.08 0.08 68 1016.3
20260507023747 15 74 4.8 16.1 0.00 0.08 0.08 67 1016.1
20260507022747 16 23 3.2 14.5 0.00 0.08 0.08 67 1015.8
20260507021731 16 355 3.2 19.3 0.00 0.08 0.08 68 1015.7
20260507015648 16 38 6.4 14.5 0.00 0.08 0.08 67 1015.4
20260507014702 16 38 3.2 16.1 0.00 0.08 0.08 68 1014.9
20260507013706 16 44 4.8 16.1 0.00 0.08 0.08 67 1014.6
20260507012656 16 56 3.2 11.3 0.00 0.08 0.08 68 1014.4
20260507011646 16 59 3.2 14.5 0.00 0.08 0.08 68 1014.1
20260507005522 17 46 3.2 8.0 0.00 0.08 0.08 68 1013.9
20260507003345 17 40 1.6 12.9 0.00 0.08 0.08 67 1013.8
20260507001133 17 336 0.0 8.0 0.00 0.08 0.08 66 1013.6
20260507000132 17 47 3.2 12.9 0.00 0.08 0.08 67 1013.4
20260506235129 17 20 1.6 19.3 0.00 0.08 0.08 67 1013.3
20260506234113 17 298 4.8 19.3 0.00 0.08 0.08 66 1013.2
20260506233056 17 45 4.8 20.9 0.00 0.08 0.08 66 1013.2
20260506232049 18 55 6.4 20.9 0.00 0.08 0.08 65 1013.0
20260506231052 18 82 4.8 16.1 0.00 0.08 0.08 65 1013.1
20260506230025 18 32 4.8 16.1 0.00 0.08 0.08 65 1012.8
20260506224951 18 65 4.8 14.5 0.00 0.08 0.08 65 1012.7
20260506223946 18 0 3.2 14.5 0.00 0.08 0.08 64 1012.6
20260506222937 18 46 4.8 14.5 0.00 0.08 0.08 64 1012.4
20260506215725 18 34 4.8 19.3 0.00 0.08 0.08 64 1012.5
20260506214701 18 39 4.8 19.3 0.00 0.08 0.08 63 1012.5
20260506213640 18 53 4.8 16.1 0.00 0.08 0.08 65 1012.5
20260506212636 18 48 4.8 16.1 0.00 0.08 0.08 65 1012.7
20260506211615 17 18 3.2 12.9 0.00 0.08 0.08 67 1013.0
20260506205441 17 50 1.6 9.7 0.00 0.08 0.08 68 1012.6
20260506203317 17 28 4.8 17.7 0.00 0.08 0.08 67 1012.8
20260506202306 17 63 3.2 9.7 0.00 0.08 0.08 68 1013.0
20260506201237 17 37 1.6 9.7 0.00 0.08 0.08 67 1013.4
20260506200225 17 90 3.2 9.7 0.00 0.08 0.08 67 1013.5
20260506195228 16 49 1.6 11.3 0.00 0.08 0.08 69 1013.6
20260506194238 16 0 3.2 11.3 0.00 0.08 0.08 70 1013.8
20260506193221 16 114 0.0 4.8 0.00 0.08 0.08 69 1013.8
20260506192202 15 22 1.6 6.4 0.00 0.08 0.08 69 1013.8
20260506191134 15 5 1.6 17.7 0.00 0.08 0.08 68 1013.8
20260506184937 15 74 4.8 14.5 0.00 0.08 0.08 71 1013.1
20260506183912 15 279 4.8 16.1 0.00 0.08 0.08 73 1013.0
20260506182910 14 40 4.8 16.1 0.00 0.08 0.08 72 1013.0
20260506181903 14 55 4.8 14.5 0.00 0.08 0.08 72 1013.2
20260506175729 13 58 4.8 14.5 0.00 0.05 0.05 75 1013.3
20260506174658 13 0 4.8 16.1 0.00 0.05 0.05 75 1013.3
20260506173652 13 0 4.8 16.1 0.00 0.05 0.05 76 1013.1
20260506172628 12 0 3.2 14.5 0.00 0.05 0.05 76 1013.1
20260506170519 12 55 3.2 14.5 0.00 0.05 0.05 78 1013.6
20260506165516 12 0 1.6 14.5 0.00 0.05 0.05 78 1013.9
20260506164454 12 0 3.2 16.1 0.00 0.05 0.05 79 1013.9
20260506162251 12 0 4.8 14.5 0.00 0.05 0.05 80 1013.3
20260506161305 12 0 1.6 12.9 0.00 0.05 0.05 80 1013.6
20260506160323 12 0 3.2 11.3 0.00 0.05 0.05 80 1013.9
20260506155342 12 0 1.6 17.7 0.00 0.05 0.05 81 1013.5
20260506153224 12 0 0.0 4.8 0.10 0.05 0.05 81 1014.2
20260506151029 12 0 0.0 4.8 0.00 0.00 0.00 79 1015.1
20260506145957 12 0 1.6 8.0 0.00 0.00 0.00 78 1014.4
20260506144956 11 0 1.6 12.9 0.00 0.00 0.00 78 1014.0
20260506144017 12 0 3.2 12.9 0.00 0.00 0.00 78 1013.1
20260506142954 12 0 1.6 11.3 0.00 0.00 0.00 77 1013.8
20260506141939 12 0 3.2 11.3 0.00 0.00 0.00 78 1013.9
20260506140942 11 0 3.2 12.9 0.00 0.00 0.00 77 1013.6
20260506135920 11 0 3.2 12.9 0.00 0.00 0.00 77 1013.9
20260506134940 11 0 4.8 16.1 0.00 0.00 0.00 77 1013.1
20260506133934 11 0 6.4 16.1 0.00 0.00 0.00 77 1012.7
20260506132926 11 0 3.2 11.3 0.00 0.00 0.00 77 1012.8
20260506131931 11 0 3.2 11.3 0.00 0.00 0.00 77 1012.8
20260506130909 11 0 4.8 14.5 0.00 0.00 0.00 77 1012.4
20260506125908 11 0 4.8 19.3 0.00 0.00 0.00 77 1012.5
20260506124914 11 0 3.2 19.3 0.00 0.00 0.00 78 1012.2
20260506123907 11 0 3.2 11.3 0.00 0.00 0.00 78 1012.3
20260506122924 11 0 3.2 8.0 0.00 0.00 0.00 78 1012.2
20260506121932 11 0 3.2 12.9 0.00 0.00 0.00 78 1012.1
20260506120908 11 0 3.2 16.1 0.00 0.00 0.00 78 1012.0
20260506115900 11 0 4.8 16.1 0.00 0.00 0.00 77 1012.0
20260506114849 11 0 4.8 14.5 0.00 0.00 0.00 76 1011.7
20260506113835 11 0 3.2 14.5 0.00 0.00 0.00 75 1011.6
20260506111712 12 0 4.8 17.7 0.00 0.00 0.00 72 1011.1
20260506110643 12 0 3.2 17.7 0.00 0.00 0.00 72 1011.0
20260506105652 12 46 4.8 16.1 0.00 0.00 0.00 71 1010.9
20260506104659 12 0 4.8 14.5 0.00 0.00 0.00 71 1010.5
20260506103715 13 331 1.6 17.7 0.00 0.00 0.00 70 1010.5
20260506102731 13 57 4.8 17.7 0.00 0.00 0.00 70 1010.4
20260506101701 13 24 3.2 11.3 0.00 0.00 0.00 70 1010.2
20260506100647 13 345 3.2 11.3 0.00 0.00 0.00 70 1010.1
20260506095635 13 320 3.2 9.7 0.00 0.00 0.00 70 1009.8
20260506094628 13 350 1.6 6.4 0.00 0.00 0.00 70 1009.7